Theta_e
327 329 329 329 330 331 332 331 332 332 333 333 333 333 333 332 332 331 331 331 331 331 330 330 330 329 329 329 329 327 326 319 318 315 319 323 323 329 328 329 327 327 324 311 311 311 310 308 306 308 305 303 303 301 303 305 305 302 296 290 290 289 291 292 292 293 292 296 296 296 296 298 295 298 300 302 306 307 308 311 311 319 318 319 320 325 327 327
324 327 327 329 329 331 332 332 331 332 332 333 333 333 333 333 332 331 331 331 330 330 330 330 329 329 329 329 329 328 322 319 314 315 318 326 330 330 331 329 328 326 320 310 308 309 310 308 307 307 303 300 307 300 303 302 305 298 291 292 290 289 293 296 293 294 297 296 298 297 295 298 297 297 298 298 299 302 304 306 311 314 317 320 322 325 325 325
328 328 328 327 329 330 331 331 331 331 332 332 332 332 332 331 330 330 330 330 330 330 330 330 330 329 328 329 328 326 321 317 316 313 317 330 330 330 330 330 329 328 313 310 311 311 310 313 309 306 304 301 298 298 300 298 304 296 294 289 289 294 294 294 295 297 298 299 297 295 295 296 298 297 298 297 297 299 303 308 308 311 314 317 320 323 324 324
327 327 327 328 328 329 330 330 330 331 331 332 332 332 331 331 330 330 331 330 330 330 329 329 329 328 327 327 326 322 319 315 310 316 324 332 331 331 331 330 329 323 317 315 313 311 311 312 310 305 303 301 298 301 298 298 299 294 295 290 293 295 295 296 295 296 296 300 298 296 294 296 296 297 297 295 296 295 297 309 312 314 316 317 320 322 322 323
326 326 327 327 328 329 330 331 330 331 332 331 331 331 330 330 330 330 330 330 330 329 329 329 328 327 326 327 325 321 316 309 310 318 326 332 331 333 330 330 327 319 317 317 316 311 308 307 310 305 305 304 297 296 295 297 298 298 294 294 295 294 295 294 294 295 297 298 298 295 296 296 297 298 294 297 294 292 296 302 310 318 319 319 319 321 322 321
326 326 327 327 328 329 329 330 330 330 331 331 331 330 330 330 330 330 330 330 329 329 329 329 327 326 326 326 321 320 314 295 315 317 331 333 332 332 329 330 327 321 319 316 314 310 307 306 307 305 305 304 295 293 294 296 301 295 294 294 294 294 296 297 296 296 295 297 296 296 297 297 296 296 294 297 295 293 294 301 308 320 321 322 323 322 321 320
325 326 326 326 327 327 328 330 330 330 331 331 330 330 330 330 330 329 329 329 329 329 328 328 326 326 325 323 320 318 312 316 313 318 332 333 333 331 330 330 327 317 314 311 311 311 308 306 304 299 304 299 298 294 296 296 299 297 294 293 296 295 297 295 295 294 294 297 297 296 296 297 294 294 293 294 293 293 295 297 312 321 322 322 321 321 321 321
323 325 325 325 325 326 328 329 329 330 330 331 330 330 330 330 329 329 329 329 329 328 328 327 325 325 323 319 315 311 310 311 316 322 331 333 332 329 327 319 316 313 312 310 310 308 309 307 302 305 303 297 296 295 296 295 297 295 294 295 296 297 295 295 292 293 294 296 294 295 297 296 294 293 293 294 295 297 298 300 318 321 321 321 321 320 320 321
322 323 324 325 324 325 325 328 328 329 330 330 329 329 330 330 329 329 329 328 328 328 327 326 325 324 324 319 313 308 307 317 319 322 331 330 326 323 318 314 314 311 310 310 310 308 307 307 305 305 300 298 298 295 295 293 290 294 296 295 296 296 295 294 295 294 294 296 295 296 294 295 293 296 294 295 296 296 304 308 319 320 319 319 320 320 320 320
321 322 324 324 324 324 325 326 329 329 329 329 329 329 329 329 329 329 329 328 328 327 326 325 325 324 320 316 312 305 313 324 329 327 329 326 321 317 315 314 312 310 309 308 309 307 306 309 307 307 302 300 299 295 293 293 291 294 295 295 296 296 295 295 296 295 294 296 294 295 293 295 295 295 293 295 295 302 307 311 318 318 318 319 319 320 320 320
321 323 324 324 324 325 325 326 327 328 328 329 328 330 329 329 329 328 329 328 328 327 326 325 324 322 317 317 309 305 316 322 329 324 323 321 317 314 313 312 312 309 309 308 307 309 310 307 309 308 305 300 299 297 294 294 294 295 294 293 294 295 295 295 295 294 295 297 294 295 294 294 295 295 290 294 293 306 307 310 315 317 317 318 318 319 319 320
322 322 324 324 324 325 326 326 326 328 328 328 328 329 328 328 328 328 328 328 327 326 325 325 324 321 317 315 309 311 317 316 328 321 321 317 314 314 314 312 311 310 309 306 306 310 310 311 310 307 302 303 295 297 295 295 294 294 294 292 293 294 295 295 294 295 296 297 295 294 294 293 293 292 294 291 296 304 308 309 313 314 315 317 317 318 318 319
321 322 323 324 324 324 324 326 326 327 326 327 327 327 328 328 328 327 327 327 327 326 325 324 321 320 316 307 312 312 313 322 323 321 319 317 314 314 315 314 314 311 310 308 307 309 311 311 311 304 306 300 296 294 297 296 294 295 293 292 291 292 291 293 294 293 295 296 294 295 286 287 291 295 294 294 299 300 305 307 309 311 312 314 315 316 317 318
320 321 322 323 323 323 324 326 326 327 326 326 327 327 327 327 327 327 327 325 326 325 324 322 319 317 314 310 312 315 321 323 322 319 317 315 314 311 313 315 311 310 312 310 310 311 311 313 312 307 305 302 297 299 297 295 295 290 290 293 286 286 285 292 294 293 294 295 294 295 288 286 292 295 294 295 298 301 302 304 306 307 309 310 312 314 315 317
319 320 321 322 322 322 324 325 326 327 326 327 327 326 327 327 327 327 326 325 325 324 322 320 317 314 309 312 315 319 326 323 317 316 316 314 311 308 310 311 309 309 309 310 309 311 310 309 306 304 305 302 299 295 291 288 286 290 289 285 287 287 285 289 293 293 294 294 294 293 287 288 292 293 290 294 295 299 299 300 302 301 303 305 308 311 313 315
318 320 321 322 322 322 323 323 325 325 326 326 326 325 325 325 326 326 325 324 324 322 318 314 312 313 308 305 310 323 319 314 315 319 318 315 313 309 309 308 307 307 308 306 308 307 306 306 302 303 301 302 297 293 290 286 284 285 287 281 285 285 286 288 293 292 294 293 295 292 287 287 292 291 291 293 295 294 296 296 298 298 299 299 302 307 310 311
318 320 321 321 322 322 323 323 323 324 324 324 324 324 324 324 324 324 323 323 319 317 315 309 311 313 302 310 312 307 306 312 314 316 314 311 312 308 308 306 304 304 304 305 306 306 304 303 302 301 300 300 295 292 286 283 281 281 283 283 284 286 284 284 288 291 293 293 292 292 289 288 289 289 293 293 294 293 293 294 296 297 298 298 298 301 305 308
318 320 321 320 321 322 322 322 322 323 324 323 322 322 323 324 324 322 318 315 313 313 311 312 311 308 305 305 300 302 309 309 309 314 312 309 308 309 308 303 302 302 302 301 305 300 301 298 300 297 296 295 294 289 285 281 282 280 284 285 286 286 286 287 287 289 293 292 291 290 289 291 292 289 291 293 292 293 294 294 294 295 296 296 296 298 302 306
318 319 320 321 320 321 322 323 323 322 323 325 323 324 323 321 317 315 310 310 307 302 300 300 303 296 296 303 306 306 309 312 312 311 306 306 308 309 305 304 304 300 297 297 295 298 298 296 297 294 290 291 291 290 287 286 286 286 285 284 284 285 286 286 289 291 292 291 289 289 290 292 293 292 290 291 292 292 294 292 291 292 294 296 296 298 301 304
317 319 320 321 321 320 321 322 323 323 324 322 316 314 311 305 304 302 307 308 305 304 303 304 308 304 303 305 304 309 313 316 307 307 308 309 306 303 302 302 301 301 296 293 293 296 298 291 289 289 291 293 292 291 290 290 290 288 288 286 284 286 287 289 289 291 291 291 289 289 291 291 290 290 291 289 291 291 291 291 292 292 292 294 296 297 299 302
317 319 320 321 321 321 322 323 323 323 322 317 314 310 301 301 296 293 300 305 305 302 305 305 308 299 301 304 306 306 304 305 307 305 306 309 306 304 297 300 296 293 293 295 294 297 297 290 290 292 294 294 292 291 291 290 290 289 288 286 284 285 285 288 290 291 290 291 289 288 287 289 290 291 291 289 290 292 293 292 292 292 292 292 294 296 297 301
317 319 320 320 318 320 322 323 323 322 320 316 313 310 309 309 309 310 307 296 300 302 304 306 307 301 304 305 307 310 309 302 300 302 307 305 301 299 295 297 294 291 293 293 294 291 290 288 292 293 294 293 293 292 291 290 289 288 287 285 284 284 286 288 289 290 290 291 287 285 288 290 291 291 291 289 291 291 293 294 294 293 293 292 292 294 296 296
317 319 320 321 319 320 322 323 321 320 316 313 311 310 310 309 314 314 309 301 297 304 303 304 302 300 302 307 307 312 304 301 297 299 302 303 298 297 296 294 293 293 292 292 289 288 285 289 293 295 294 293 291 291 290 289 290 287 286 284 283 284 286 285 287 290 290 287 287 286 286 288 289 287 289 292 291 291 292 293 293 293 294 294 293 294 296 296
318 319 320 321 320 320 322 321 321 317 313 312 313 309 310 313 313 312 305 295 293 297 301 304 303 302 303 302 306 305 304 302 301 297 305 301 297 296 296 295 293 291 290 291 291 289 288 290 294 294 294 293 291 290 289 287 287 288 288 284 283 285 286 285 285 288 288 290 288 285 284 285 284 288 287 291 291 291 292 292 292 292 293 293 294 294 295 297
318 319 320 321 319 320 320 320 314 313 315 313 307 310 312 313 314 311 302 294 293 292 304 302 302 304 305 308 306 302 302 305 303 302 304 302 297 294 294 296 294 289 291 292 290 289 289 292 295 293 292 292 291 289 289 289 285 286 288 289 288 287 288 288 287 286 283 285 285 289 282 279 279 283 287 292 288 289 290 291 292 293 293 292 293 294 294 294
318 319 320 320 320 320 321 313 312 315 312 307 308 312 312 313 313 309 302 289 286 290 299 293 304 298 309 301 301 300 303 297 302 305 305 303 305 296 294 292 292 288 290 290 289 288 290 291 294 292 291 291 290 289 290 290 286 284 286 289 288 288 288 287 286 284 279 279 285 286 283 276 281 283 283 285 285 289 288 288 292 292 293 292 293 294 294 294
318 319 320 320 320 320 313 306 315 314 308 307 310 313 312 312 307 304 298 285 285 291 290 297 298 300 306 301 301 301 288 290 302 303 303 304 301 301 293 289 289 291 292 291 289 286 290 288 290 292 291 290 289 287 290 291 287 283 287 289 288 288 286 287 287 285 278 281 287 282 280 278 279 284 282 281 284 285 286 288 289 292 292 292 293 294 293 294
319 320 319 319 319 318 314 314 312 309 310 311 312 312 312 308 303 299 293 278 279 295 288 291 299 308 304 302 302 296 292 301 294 299 303 303 300 296 293 289 290 289 291 291 282 290 290 288 289 289 289 289 288 290 292 292 289 286 288 289 289 290 289 287 287 282 282 284 280 280 285 281 276 281 283 283 285 285 287 288 290 291 292 292 293 294 294 294
319 319 318 319 319 319 319 314 311 309 313 311 312 311 310 306 303 296 285 278 289 287 303 292 304 302 300 301 298 294 295 300 291 299 301 301 301 294 289 289 289 290 291 290 287 288 289 291 292 292 290 288 289 291 291 293 289 293 292 291 290 288 287 286 282 283 283 279 277 280 281 277 277 278 280 281 285 284 286 289 290 291 292 292 293 293 294 293
319 318 318 318 318 316 314 316 312 312 312 312 310 310 311 306 298 287 281 275 291 282 293 294 296 293 298 294 294 294 293 293 295 299 301 296 297 297 294 293 292 291 290 291 289 289 291 292 294 292 290 291 291 290 291 292 294 294 293 291 288 284 283 281 281 279 279 275 276 279 279 280 277 280 284 284 284 285 287 287 287 287 289 290 290 291 293 294
319 318 318 317 313 313 314 308 309 312 312 310 310 310 306 299 288 282 276 284 290 288 292 291 290 298 293 291 289 292 292 292 293 297 294 294 292 292 291 291 291 287 283 286 287 287 289 291 292 290 291 290 292 291 293 293 294 295 287 285 287 285 282 279 277 278 275 270 275 278 280 280 275 276 280 283 283 283 286 286 289 290 288 290 290 291 293 295
318 318 318 316 316 317 309 305 310 312 311 311 309 303 299 286 287 281 278 293 283 285 287 287 293 293 292 293 291 290 289 290 292 294 292 291 290 289 290 287 289 283 283 284 283 286 286 287 289 291 293 292 290 291 290 293 293 289 287 288 284 275 275 276 274 274 272 272 278 278 280 280 279 281 283 283 285 287 284 287 289 288 289 289 291 292 294 294
318 318 317 317 315 314 313 313 313 312 311 310 305 302 292 284 277 285 283 287 281 290 286 294 291 292 291 290 289 289 290 287 291 292 293 291 290 288 289 288 289 286 281 283 283 283 283 284 287 289 291 292 293 289 285 286 287 286 287 283 280 273 272 270 266 266 268 275 277 279 280 279 279 283 289 291 294 291 287 286 286 287 290 291 292 291 292 292
318 318 315 314 315 314 313 313 313 312 309 308 301 295 289 282 280 292 285 285 285 290 292 290 291 291 291 287 288 291 287 290 290 289 291 288 289 286 288 288 289 287 284 282 284 283 280 280 286 288 287 292 291 291 291 288 286 286 286 287 282 277 270 269 269 273 274 276 276 278 277 273 278 282 284 288 290 286 286 285 285 286 288 289 290 291 291 292
317 316 315 313 311 313 313 313 312 312 309 304 295 290 282 282 286 284 283 284 286 290 289 293 289 288 287 288 289 292 291 287 290 289 287 287 286 287 286 289 288 288 286 285 283 282 284 283 286 290 290 289 291 292 294 292 290 287 286 287 283 283 281 277 276 274 271 272 274 275 275 278 282 283 286 287 286 287 285 287 289 290 291 291 292 293 294 293
315 313 313 308 309 311 313 313 313 311 306 299 290 285 283 287 284 288 286 291 291 288 288 290 289 286 285 283 288 290 291 289 288 287 285 286 289 287 288 288 288 289 289 285 284 280 283 282 287 288 290 289 290 290 292 293 285 287 286 282 284 286 283 277 276 278 275 272 272 272 277 279 280 287 290 283 285 287 287 287 288 290 290 290 292 292 291 293
309 309 306 308 309 312 313 313 312 309 304 296 289 284 289 290 291 291 293 289 290 292 289 283 284 285 282 282 285 288 289 291 288 286 283 285 285 286 288 288 290 288 292 289 283 284 284 281 286 286 287 290 289 288 292 289 290 287 282 285 287 289 286 282 276 270 269 272 273 273 276 277 277 278 283 283 285 287 284 286 286 286 287 290 292 292 293 293
306 306 306 306 309 313 313 313 310 306 300 292 286 290 290 290 290 291 291 292 292 292 288 286 284 288 283 284 284 288 290 288 286 286 283 287 281 291 289 289 289 291 290 291 289 284 288 281 285 286 287 289 290 291 291 292 292 288 286 291 287 281 280 281 278 271 270 268 266 272 275 276 277 282 282 284 285 289 289 287 285 287 287 290 290 291 291 290
306 304 298 305 312 313 312 312 308 302 295 289 287 287 289 287 291 290 293 294 294 291 288 288 286 286 287 284 286 288 289 285 287 285 283 284 282 287 291 291 288 289 290 290 286 285 287 281 282 286 287 288 287 287 284 285 290 289 289 287 288 286 281 279 280 277 277 271 269 270 275 277 280 281 282 287 286 287 288 286 287 289 289 290 291 291 291 292
303 299 296 308 311 312 312 310 303 298 293 286 288 288 291 289 289 292 294 295 291 291 287 288 289 286 286 286 288 286 288 287 286 285 284 284 285 288 289 292 288 289 290 289 287 290 285 284 278 283 287 287 283 285 285 287 284 285 285 283 286 284 284 282 281 276 276 267 267 266 269 273 279 283 286 289 289 289 287 288 288 289 289 290 291 292 292 293
304 297 296 308 310 311 310 304 296 291 290 292 292 288 287 288 288 291 294 296 293 291 290 290 289 287 287 286 286 289 285 283 286 284 283 283 286 281 289 292 290 288 289 290 289 288 284 282 280 282 282 281 282 285 287 288 290 289 288 285 286 281 280 278 278 280 273 275 272 267 273 274 282 285 288 290 289 286 286 288 289 289 289 289 291 292 293 294
298 290 293 308 310 309 303 293 292 295 292 289 288 289 288 296 289 290 293 294 293 289 293 291 291 289 289 288 289 288 286 285 286 285 283 282 287 285 287 291 292 292 291 286 287 287 285 283 282 277 281 284 284 287 288 288 285 286 286 287 290 288 285 279 276 277 277 276 274 270 271 276 284 284 285 286 286 285 284 285 288 289 288 288 289 292 294 294
296 293 305 308 310 306 298 290 293 292 289 290 291 290 292 290 289 291 291 291 290 289 290 289 290 289 289 290 288 288 288 284 286 285 285 283 285 286 288 292 293 293 293 287 289 288 291 283 280 280 283 283 285 285 287 287 287 287 286 285 284 286 285 284 280 280 280 276 276 275 272 275 281 281 284 284 284 284 285 285 288 288 288 288 289 293 294 293
297 297 298 306 309 305 295 285 285 288 290 291 291 289 291 290 290 289 290 291 291 289 289 289 289 293 290 292 291 288 290 283 287 286 283 285 286 287 287 291 294 292 292 289 291 292 284 281 283 275 275 278 281 283 284 285 287 282 282 283 285 286 283 280 279 278 279 277 278 276 275 274 282 281 283 283 285 286 286 285 286 289 289 290 291 293 294 292
298 300 300 301 305 303 292 293 290 289 289 288 289 288 288 289 291 292 291 290 289 290 290 288 291 291 290 292 291 291 291 288 284 288 285 285 288 288 289 291 295 293 294 294 296 295 288 283 284 278 275 274 272 275 279 281 282 283 283 284 286 286 283 283 280 279 277 277 278 274 274 280 283 283 284 285 285 286 287 287 286 288 290 292 293 294 294 293
294 285 293 296 299 299 297 296 294 292 289 288 287 288 288 287 289 291 293 289 290 290 289 290 289 292 290 290 287 288 288 288 288 285 287 287 287 288 288 290 293 294 294 296 294 294 284 286 287 285 283 281 283 283 285 286 285 284 285 285 285 287 285 285 282 279 280 278 278 280 283 285 282 285 285 287 285 288 288 287 288 288 289 292 292 293 294 293
296 290 289 286 296 295 293 296 292 292 288 291 286 288 287 289 289 290 292 288 291 292 289 291 291 290 288 289 287 287 289 286 285 288 287 287 286 287 287 289 291 292 294 294 294 291 286 285 286 285 285 285 283 283 286 290 286 287 286 285 286 286 285 285 284 282 283 280 279 282 283 283 285 285 284 285 287 285 286 287 287 286 288 293 293 291 292 291
288 291 295 296 290 286 288 290 293 291 292 291 287 289 287 288 289 287 289 290 290 291 290 289 292 292 291 289 289 285 286 286 285 285 285 284 285 287 288 288 289 290 292 291 293 290 286 285 285 284 284 284 285 286 287 288 288 287 287 286 284 285 285 285 284 287 284 282 282 286 285 283 286 286 287 288 289 290 290 289 289 287 289 291 291 292 292 292
291 290 291 293 288 291 292 293 293 291 290 291 287 288 287 289 288 289 288 288 291 289 292 286 289 291 291 292 290 286 287 284 282 284 285 285 285 284 282 286 288 285 289 288 289 285 287 281 282 285 283 284 284 286 287 287 285 285 285 286 286 285 285 286 287 288 286 285 287 287 284 284 288 287 288 289 289 289 287 286 287 289 290 293 293 293 293 293
289 291 287 289 289 292 292 293 292 290 288 291 286 287 289 289 288 288 289 291 288 289 291 290 289 290 291 291 291 287 288 290 288 285 284 286 281 284 286 284 285 284 286 286 288 287 287 280 286 282 280 282 285 285 286 286 286 284 285 286 287 286 287 287 288 287 285 285 286 284 283 284 289 287 288 287 286 287 286 287 288 289 289 292 293 293 293 294
288 288 291 292 288 289 293 292 290 289 287 287 284 287 288 290 289 292 289 291 293 289 290 290 291 290 291 291 290 290 292 292 291 291 290 291 287 289 289 283 288 286 285 287 287 287 287 279 283 281 280 278 283 283 283 284 285 285 285 285 286 286 284 285 284 285 284 285 286 284 283 285 286 288 289 290 287 287 287 288 288 289 286 289 291 292 293 294
290 291 292 293 285 292 290 292 291 289 285 288 288 287 288 290 291 292 289 291 291 293 294 292 291 291 288 290 289 291 293 293 294 294 294 296 295 291 290 291 292 290 288 288 287 288 286 283 280 279 279 278 280 283 283 283 284 282 284 286 287 287 288 288 289 288 289 290 285 283 285 289 287 288 289 288 288 288 289 290 289 288 286 288 291 292 293 294
Wind_Speed
17 21 22 26 24 30 26 26 26 26 25 24 24 23 22 21 21 21 20 18 19 17 15 14 14 16 12 15 15 13 8 4 2 1 4 1 7 13 14 12 6 6 4 13 16 13 8 13 15 14 9 5 3 4 2 2 0 1 1 3 2 3 1 4 5 9 3 9 5 5 4 9 5 1 2 4 10 6 3 5 3 4 5 1 1 12 13 10
20 22 20 21 27 23 28 27 24 25 25 25 25 24 21 20 21 21 19 19 18 17 17 14 14 12 15 15 15 12 7 4 3 1 2 6 15 14 14 12 10 4 10 15 15 11 10 10 12 11 6 5 1 2 2 2 1 2 1 2 6 4 6 5 3 6 6 5 9 6 4 7 6 8 3 6 1 4 5 3 3 4 5 7 9 12 13 10
18 21 25 25 22 24 24 28 27 26 25 25 25 24 24 22 21 21 19 19 18 17 17 16 15 13 14 16 14 11 7 3 1 4 4 13 14 14 11 11 9 5 9 14 11 14 8 4 2 5 2 4 3 2 4 3 0 2 2 2 5 6 3 3 4 9 5 11 7 6 5 4 6 3 2 5 6 3 8 5 1 2 5 8 8 11 11 11
14 13 17 24 23 27 25 26 26 26 26 25 25 24 23 22 21 21 20 19 19 18 17 17 17 15 12 13 12 6 6 3 4 2 7 16 14 13 12 11 13 14 12 12 11 12 8 6 1 3 2 5 5 1 2 4 1 2 2 3 3 1 1 3 0 4 3 12 10 7 3 4 4 4 3 7 8 3 3 7 11 11 11 10 12 12 10 11
14 14 16 19 22 22 27 29 29 28 26 26 25 25 24 22 21 21 20 20 19 18 17 16 16 15 14 11 9 5 8 1 5 6 12 18 16 14 13 12 11 7 12 10 11 10 13 9 2 2 4 2 3 4 3 2 2 1 6 5 4 0 1 5 3 3 5 0 11 6 8 6 2 1 5 11 9 7 9 11 7 15 14 15 14 13 10 11
15 16 16 16 17 23 25 31 27 27 26 25 25 24 24 23 22 21 21 21 20 19 18 17 16 15 14 10 5 4 10 10 0 1 17 19 17 16 13 11 11 14 14 5 7 8 12 8 6 5 3 3 2 6 6 1 1 3 3 3 4 3 2 1 1 2 6 5 7 8 4 5 5 2 4 11 8 4 7 7 9 13 17 16 15 14 12 12
11 13 17 18 20 25 23 27 29 28 26 26 25 25 24 23 23 22 22 21 21 19 18 16 17 15 12 9 3 3 12 3 1 1 20 20 17 15 13 11 9 11 11 10 6 5 5 8 5 4 3 2 5 4 10 4 1 3 5 0 2 2 6 2 2 4 3 10 10 4 5 6 5 6 2 5 4 3 2 6 12 10 9 11 13 14 17 16
11 12 14 16 19 20 22 26 28 27 27 26 26 26 25 24 22 22 22 22 21 20 19 19 16 14 13 6 6 2 3 6 2 1 15 18 16 13 11 5 7 6 10 13 10 10 7 7 5 2 4 3 4 5 8 8 1 5 5 3 2 0 3 1 2 1 3 1 1 8 8 8 6 4 4 6 4 2 1 5 9 11 12 11 14 15 13 13
13 13 13 14 17 19 19 24 28 28 28 27 26 26 25 24 23 21 22 22 21 21 21 19 17 15 7 6 5 8 7 2 2 6 14 11 11 13 10 5 4 10 6 6 9 13 10 3 3 2 4 5 2 8 7 3 7 4 7 1 0 1 2 1 1 0 3 1 4 7 2 0 2 1 4 6 5 1 4 8 12 12 12 13 14 15 14 14
16 14 14 14 17 16 19 19 28 28 27 28 26 26 26 24 23 22 21 22 22 21 21 20 18 14 5 7 5 9 2 4 3 8 12 13 11 10 4 9 5 12 10 6 9 12 7 4 7 2 2 3 2 4 4 1 4 2 5 4 3 0 1 1 0 1 1 2 3 8 2 2 2 1 3 3 4 5 7 9 10 14 14 14 11 11 12 14
16 15 15 15 16 17 20 22 21 27 27 24 25 26 24 24 23 23 21 21 22 22 21 21 19 9 6 8 11 10 3 3 1 7 12 14 13 10 7 9 9 7 13 6 9 9 10 12 7 4 1 2 4 9 4 5 3 9 3 2 2 0 1 0 1 3 0 1 1 6 2 0 2 1 5 6 5 7 11 8 10 11 13 12 12 12 10 11
17 16 16 17 17 18 20 25 29 26 25 24 25 25 24 24 23 23 22 21 21 22 21 20 17 7 5 6 9 5 2 3 2 7 10 13 10 7 8 9 9 11 14 9 7 5 11 9 9 7 3 6 4 5 7 2 4 6 5 4 1 1 1 1 4 3 0 2 4 3 5 0 0 5 6 3 6 5 10 10 11 10 10 11 10 10 9 12
17 18 18 18 19 18 17 18 23 25 27 26 24 25 26 25 24 24 22 20 20 20 20 17 8 5 10 6 3 1 2 3 5 5 6 3 4 3 3 1 2 10 13 15 11 8 10 7 9 11 1 1 2 2 5 7 7 2 3 4 1 0 2 5 1 1 0 1 4 1 4 6 9 12 0 4 9 5 6 8 9 8 8 8 9 10 10 7
17 18 19 19 19 20 22 19 18 22 26 27 25 25 25 26 25 24 24 21 21 18 18 14 6 6 10 3 1 1 3 0 6 7 8 6 8 2 3 1 5 4 4 10 8 9 11 7 6 6 2 2 3 3 9 6 1 2 2 1 4 4 5 2 4 2 3 0 1 0 5 6 9 11 3 5 10 13 11 9 9 8 8 8 9 9 10 11
18 19 19 20 20 21 23 24 21 20 22 26 25 25 26 25 26 24 24 22 21 18 18 10 4 9 6 1 2 3 2 3 6 6 8 12 9 4 3 2 5 6 7 10 7 7 9 7 5 4 2 2 3 4 6 2 3 1 3 5 0 6 5 3 1 5 7 1 3 3 2 7 7 8 5 7 6 10 11 9 9 8 8 9 8 9 9 11
19 19 20 20 21 22 26 26 26 22 23 24 25 24 25 26 25 23 23 18 19 19 11 11 2 3 6 4 2 4 4 5 7 5 3 5 13 10 5 5 4 4 8 3 7 7 6 5 5 3 1 3 5 7 8 6 5 2 4 2 3 2 5 1 4 4 3 2 0 4 5 2 7 6 3 6 9 7 9 9 9 10 10 9 9 9 9 7
20 20 21 22 22 25 24 24 21 23 22 24 25 25 25 25 22 22 22 24 12 6 7 6 6 1 6 1 3 5 5 3 2 3 4 2 5 11 10 6 4 5 5 5 6 7 3 4 0 2 1 2 3 3 4 6 6 4 1 2 3 7 2 2 4 2 3 3 6 2 2 5 3 5 1 4 7 8 7 9 9 10 9 9 8 8 9 9
21 21 22 22 23 24 26 25 22 22 24 26 25 23 24 25 28 25 19 13 8 7 7 4 3 7 5 3 10 8 4 5 6 7 7 2 7 12 10 4 3 7 6 5 1 7 1 3 2 4 2 4 6 5 7 8 6 3 2 1 1 1 3 4 5 4 5 2 5 3 4 9 8 4 3 3 4 7 10 10 10 10 8 8 7 8 10 10
23 22 23 23 24 26 27 29 27 24 23 26 28 25 25 22 15 12 13 11 13 5 7 7 10 12 7 18 5 9 6 7 4 9 6 6 3 7 4 5 8 10 6 7 3 9 2 4 3 3 12 13 13 10 8 8 6 6 6 4 3 5 4 3 4 1 6 5 5 5 8 11 12 6 4 4 1 6 9 4 4 6 7 7 8 9 9 11
25 24 25 25 26 25 27 29 29 27 25 22 19 18 14 10 7 6 5 13 10 11 3 16 13 4 5 17 10 4 9 9 6 4 5 1 10 8 7 5 4 3 7 9 7 5 6 10 14 17 14 12 6 6 9 10 7 2 0 2 4 6 4 2 2 2 0 2 7 7 9 8 5 6 7 4 1 3 5 6 6 6 8 8 9 10 11 11
26 26 27 27 27 28 28 27 30 29 27 15 23 20 14 18 20 11 14 12 7 3 10 16 13 3 2 3 11 18 13 4 2 2 7 3 8 15 5 9 7 7 5 8 11 3 10 9 13 10 9 9 5 5 8 7 4 4 2 0 5 3 5 2 1 1 4 5 3 3 4 8 9 8 6 0 1 9 10 8 8 9 8 8 9 11 11 13
28 28 28 27 26 26 29 29 28 29 31 21 16 12 10 16 5 9 21 11 4 5 4 17 5 6 3 5 4 11 7 6 4 7 4 6 8 13 4 8 12 11 6 8 9 8 11 15 9 7 6 4 6 5 6 8 8 4 5 4 2 6 3 3 2 2 2 2 8 0 5 10 11 9 6 3 8 7 7 9 11 11 11 10 9 10 11 6
30 29 30 28 28 24 28 29 31 32 12 16 14 3 8 1 17 12 9 12 7 2 7 10 7 5 3 3 1 6 15 11 11 8 8 6 8 7 11 9 11 10 9 11 14 10 9 11 11 8 5 7 7 6 5 6 4 4 3 2 5 4 5 5 2 0 2 2 1 1 3 8 7 3 7 9 8 6 7 9 11 8 12 13 13 13 13 12
32 32 30 29 29 31 31 30 33 24 16 17 15 4 5 10 17 17 16 6 4 5 3 6 6 4 2 8 1 2 15 6 6 12 6 7 13 5 11 12 14 9 13 13 13 12 5 5 7 11 11 9 9 7 5 6 8 4 4 3 3 2 5 4 4 1 0 0 2 1 3 7 5 5 5 8 8 5 5 6 8 10 9 7 5 6 9 12
34 33 32 30 30 33 31 33 20 19 20 14 4 8 12 14 15 14 18 5 5 3 2 4 1 1 5 2 2 5 3 4 2 3 5 8 8 6 8 6 8 12 14 14 8 10 8 8 13 12 9 9 8 9 8 7 7 5 5 8 8 7 7 0 3 5 1 3 1 1 3 5 4 6 10 10 1 4 6 7 11 13 11 7 10 12 8 8
36 34 33 32 33 36 37 21 19 16 19 13 9 12 14 13 12 7 11 5 4 2 3 7 1 4 4 3 3 3 7 1 1 2 5 5 1 4 5 8 5 14 13 13 8 3 7 3 14 14 10 8 8 8 7 8 7 5 6 8 7 7 6 7 5 4 1 3 2 1 7 5 5 3 5 5 4 10 5 5 11 10 10 8 12 10 9 10
37 36 34 33 31 36 27 11 15 17 19 7 11 13 14 14 5 3 8 3 3 5 7 1 4 3 4 6 10 9 7 7 1 3 5 3 10 0 11 7 3 1 6 4 1 6 5 5 10 12 11 10 8 9 7 10 7 6 2 4 5 6 7 8 9 7 2 1 1 4 2 3 5 8 4 3 2 7 6 9 12 12 11 11 11 10 10 10
38 36 35 33 33 35 15 15 21 21 23 18 19 16 15 10 4 3 4 7 6 9 4 2 3 1 2 10 10 7 2 16 6 7 6 1 1 1 5 9 11 12 8 6 12 1 9 6 9 11 9 9 9 6 5 9 7 4 3 7 8 9 8 8 6 4 1 1 4 1 0 1 5 7 6 1 2 5 8 10 12 14 12 10 9 11 12 11
38 37 35 36 35 34 10 19 26 25 11 18 18 14 10 6 6 7 4 7 2 3 3 10 5 5 3 13 10 1 3 4 8 5 1 1 2 2 5 5 4 7 1 7 9 2 2 9 12 12 8 9 5 8 5 10 7 2 6 5 6 7 6 4 5 5 0 2 6 4 2 4 7 6 5 2 1 5 8 9 10 10 12 12 12 11 9 6
39 37 38 38 32 12 8 12 10 10 20 16 15 16 10 7 7 8 6 8 6 3 5 3 6 13 11 17 10 3 5 1 3 4 6 5 6 0 1 4 5 7 3 3 3 5 1 3 1 3 9 7 8 2 4 6 2 6 6 6 5 7 3 3 5 3 3 2 7 6 3 2 4 4 7 5 5 7 6 6 6 5 5 6 7 8 7 6
40 40 38 39 22 12 15 10 10 20 18 15 16 18 11 5 7 8 11 4 5 3 3 7 5 10 13 17 11 3 4 4 5 13 10 1 3 0 3 2 3 6 4 2 1 3 2 1 2 1 2 2 3 4 1 2 3 10 3 4 6 4 6 4 3 4 3 5 5 1 3 2 6 4 5 8 5 4 5 6 8 8 6 7 6 5 6 5
41 41 39 30 18 16 22 18 20 19 20 20 20 14 11 8 1 10 6 4 10 8 13 10 10 14 18 15 9 11 7 2 5 13 15 12 10 10 11 12 11 10 9 11 10 1 1 1 1 3 3 6 4 5 1 2 1 3 6 8 9 2 3 3 1 3 5 6 1 0 2 1 7 8 7 6 7 9 7 8 8 7 8 7 5 5 5 5
41 39 42 26 18 13 11 17 20 22 23 22 16 11 10 8 11 8 5 10 3 15 7 14 18 20 17 14 8 6 3 6 5 10 11 7 8 7 4 5 5 6 10 6 6 3 3 2 2 3 3 3 4 12 3 5 2 5 9 7 7 2 2 4 3 1 4 6 4 0 0 2 3 8 13 16 18 6 3 9 8 7 8 6 5 4 4 4
41 39 28 17 15 12 16 19 16 23 23 17 16 10 4 12 8 8 10 9 9 6 17 10 17 11 15 13 10 9 5 2 7 6 9 8 9 10 8 7 9 6 6 5 11 11 8 3 8 6 4 0 0 2 9 6 3 5 3 9 7 7 5 3 3 5 7 7 1 3 2 6 5 5 1 7 8 8 7 7 6 5 5 4 3 2 2 3
41 34 21 13 8 16 23 20 26 26 18 17 14 13 14 7 7 14 8 3 6 9 12 15 16 17 10 6 5 6 3 5 6 7 5 11 12 11 14 14 6 5 4 13 4 3 13 2 3 2 1 2 5 1 1 7 5 2 2 5 5 7 6 5 6 3 2 1 0 1 5 5 6 2 6 5 7 7 3 3 2 4 1 1 3 5 5 4
33 18 17 9 15 15 23 18 23 25 20 17 15 10 12 13 13 8 10 11 14 15 17 17 16 16 13 5 2 14 2 4 5 5 4 7 8 12 8 5 9 8 13 12 4 5 3 4 2 5 2 1 1 0 1 3 10 5 5 6 5 1 8 5 3 0 2 4 5 2 5 5 9 9 9 3 4 6 2 3 2 3 2 1 5 5 4 4
16 16 14 13 15 19 20 21 18 20 19 18 16 15 13 7 4 14 11 22 20 26 23 22 12 15 12 11 10 13 5 7 7 6 8 5 5 6 7 6 6 6 9 10 2 2 11 2 1 2 4 1 0 1 1 2 2 7 3 8 2 2 4 4 5 2 1 4 6 2 7 4 2 5 4 5 3 9 5 5 4 3 2 4 6 5 6 5
16 11 12 17 17 19 20 20 22 16 16 14 14 11 5 9 0 6 4 14 16 19 17 16 7 12 18 16 15 20 14 15 13 8 9 12 5 10 11 7 5 9 7 2 9 4 7 3 1 1 0 5 1 0 1 1 0 5 7 4 7 4 4 1 4 1 1 2 4 2 2 4 6 7 3 3 5 9 9 6 3 6 6 8 6 7 5 4
12 15 9 14 18 20 21 20 18 18 14 12 13 12 3 2 2 5 13 16 17 20 19 11 15 6 14 13 12 13 18 14 16 12 10 7 8 8 19 10 6 6 8 7 5 3 1 6 2 2 1 1 2 2 9 4 1 1 3 3 1 2 3 5 7 3 4 4 0 5 2 5 7 6 8 7 8 8 6 3 7 11 10 8 8 8 7 6
15 10 6 12 15 20 18 19 15 13 13 18 16 6 7 6 4 13 16 26 13 15 6 15 15 15 13 11 20 16 10 10 17 11 7 4 8 3 11 8 7 8 9 5 3 4 3 2 6 1 1 2 3 3 7 8 6 1 2 3 1 0 2 4 1 4 4 4 5 2 2 5 7 8 8 10 10 10 7 7 8 9 9 9 9 9 7 7
7 9 7 10 15 19 19 14 14 15 14 9 8 5 5 5 4 11 20 19 11 3 10 18 16 16 15 10 10 10 7 6 11 11 7 2 11 3 7 13 8 8 4 1 5 3 3 1 8 2 2 4 5 2 2 5 6 8 11 8 9 6 3 4 7 1 2 1 4 3 8 6 9 3 9 12 10 3 4 7 8 8 7 8 8 8 7 7
13 14 9 16 19 23 20 15 6 9 9 16 14 4 3 5 7 14 15 11 11 5 3 11 11 12 16 14 17 13 9 12 12 10 5 8 10 1 4 9 11 11 11 7 8 2 6 3 8 4 6 8 4 2 1 1 1 3 3 10 12 8 5 5 7 6 0 3 4 4 1 8 7 4 6 7 5 5 4 4 8 8 7 7 7 5 5 5
10 10 12 19 21 24 18 12 14 12 8 4 4 3 0 6 10 13 15 10 8 3 8 7 12 11 8 10 8 11 12 3 9 12 5 4 5 3 7 14 14 15 8 1 4 3 8 5 6 1 1 3 5 3 1 2 1 3 4 1 2 9 8 8 5 6 7 2 2 1 3 7 5 3 5 5 5 4 4 4 7 7 6 5 5 6 6 5
11 16 14 13 21 20 20 16 14 11 9 6 6 4 1 3 11 11 10 13 8 8 11 8 9 15 13 9 16 16 16 7 7 8 1 2 4 4 8 13 20 11 14 10 14 10 5 2 9 4 2 3 5 4 4 0 1 2 1 1 1 0 2 2 4 1 2 6 7 6 10 4 5 2 3 3 5 4 4 4 6 7 5 4 4 5 5 4
12 7 10 10 8 11 15 7 20 21 17 16 15 8 5 2 8 15 16 14 3 8 9 8 12 11 8 14 15 15 19 12 6 7 3 5 4 1 8 14 20 14 13 10 6 9 4 5 9 7 9 9 6 11 16 12 8 1 1 1 3 5 4 3 3 0 4 2 4 3 6 8 7 2 3 4 3 4 5 6 4 5 5 3 4 5 6 6
12 11 4 7 5 10 2 5 3 9 14 17 15 6 3 6 3 6 13 5 1 5 4 8 5 10 8 13 8 9 13 0 7 7 9 7 3 2 4 12 17 12 7 14 12 12 3 3 5 10 14 15 17 6 3 12 5 10 9 9 6 5 5 3 4 4 9 5 7 9 11 9 5 6 4 5 3 5 5 4 5 5 4 3 3 4 5 6
5 12 11 6 7 6 3 2 7 12 13 13 12 6 9 9 6 4 7 5 5 10 4 9 8 13 8 17 13 10 13 4 3 11 9 10 1 2 4 8 4 3 12 10 14 7 4 4 10 9 9 4 3 4 8 16 16 17 12 9 8 8 6 7 9 11 4 3 10 9 11 10 11 7 5 7 7 4 5 6 6 5 3 3 4 4 5 4
7 5 12 10 14 14 5 5 12 15 13 12 5 4 7 14 12 11 1 2 5 7 12 1 15 16 22 21 15 12 12 5 5 10 4 1 6 1 5 2 6 3 7 5 7 6 7 11 7 6 2 3 5 8 10 9 11 10 12 10 9 10 9 12 13 13 8 10 18 17 9 11 11 8 10 10 8 7 7 5 4 2 2 4 5 6 7 7
2 5 1 3 7 13 23 30 26 24 22 18 4 7 8 15 15 10 5 4 7 6 10 11 18 20 23 20 17 9 15 10 5 5 8 9 10 8 4 2 2 3 3 5 6 1 6 6 4 7 4 3 3 8 9 12 5 5 9 11 11 11 14 17 18 16 15 14 15 8 5 14 12 5 9 9 7 7 3 1 1 2 4 6 7 8 9 9
6 12 7 4 2 12 9 10 10 18 17 17 9 8 10 17 18 6 2 10 10 8 2 16 17 18 20 19 17 18 22 22 21 14 2 11 4 4 10 7 7 1 1 5 5 1 4 4 7 4 4 3 5 3 5 6 10 7 7 10 12 15 18 21 16 11 5 9 12 8 8 17 10 5 6 5 3 0 0 1 5 9 7 7 7 8 7 9
2 2 2 12 8 6 11 15 16 17 13 10 6 7 6 12 14 12 2 2 16 11 10 19 18 16 16 19 16 18 22 18 17 23 22 21 17 12 12 4 7 9 5 6 4 0 3 1 1 5 6 3 3 5 3 3 0 6 8 11 16 18 15 8 6 4 6 14 14 10 12 19 3 7 5 6 4 5 5 6 8 7 5 4 5 7 8 11
1 1 3 8 6 6 15 13 11 13 13 14 8 8 7 16 12 9 6 3 3 4 12 15 15 16 8 16 19 18 16 13 16 14 19 17 12 7 3 11 18 17 9 9 2 7 6 6 5 5 6 6 3 6 6 4 3 3 10 21 21 13 12 10 12 12 18 18 11 12 21 7 3 6 4 1 4 6 8 8 8 7 6 6 8 9 10 11
Wind_Direction
237 211 204 196 206 192 187 182 179 176 175 174 172 172 172 169 164 162 161 151 154 152 149 149 144 137 134 126 125 130 127 91 59 59 171 280 138 132 138 132 154 257 57 68 57 51 24 21 10 348 358 18 338 352 282 356 159 65 158 115 270 203 173 216 174 189 215 143 211 180 221 124 131 183 164 74 41 79 62 58 329 13 18 173 32 140 148 149
224 221 208 209 200 197 183 180 180 177 176 175 174 173 171 169 165 163 159 156 152 151 149 143 145 146 139 134 135 142 104 78 79 102 225 135 132 136 137 139 151 205 68 64 78 67 62 19 2 343 5 3 328 296 347 265 59 124 131 115 224 187 237 159 208 208 133 206 168 171 189 138 176 137 195 97 152 113 62 7 8 55 30 78 113 132 145 148
212 212 208 210 203 201 191 178 177 178 176 175 174 173 171 170 166 162 159 157 152 151 150 145 143 146 145 137 142 145 95 51 63 238 174 152 142 140 142 147 154 161 96 110 93 92 90 113 299 324 356 30 357 278 8 268 306 238 131 265 248 216 243 224 216 194 222 146 152 152 200 139 189 133 170 133 161 124 143 142 355 79 125 124 130 140 151 159
194 201 211 205 202 196 198 184 180 177 176 174 173 172 172 169 167 162 158 157 156 152 151 149 146 146 147 144 137 134 81 59 240 206 157 161 151 145 140 129 115 108 96 90 114 105 123 101 108 265 34 57 302 15 302 273 100 275 110 193 232 234 346 273 93 237 247 161 155 155 124 140 202 205 134 146 106 229 235 210 161 182 161 151 152 154 159 165
190 190 200 211 209 207 193 184 181 177 175 174 172 171 170 169 167 163 158 157 157 154 151 150 148 146 149 155 154 111 88 69 246 174 166 157 151 148 139 130 124 112 108 134 95 95 86 57 32 36 56 21 320 320 250 272 192 111 210 199 221 200 287 263 278 259 152 335 129 133 131 193 134 44 125 151 154 203 202 212 216 163 161 152 157 166 164 173
201 186 199 199 211 218 205 184 180 178 174 175 173 171 169 167 166 162 158 157 157 155 153 150 149 151 153 146 123 128 137 207 72 219 161 149 153 148 141 134 127 116 114 95 104 89 79 33 48 40 26 55 304 311 281 248 172 236 302 245 230 220 210 305 341 176 145 141 143 148 194 113 155 173 202 168 175 231 211 184 173 166 169 166 155 155 168 176
220 196 196 200 208 218 217 186 175 174 175 173 174 170 169 166 166 161 159 157 156 154 153 149 151 152 138 106 46 116 181 259 197 276 158 147 151 145 146 133 128 122 113 109 116 92 98 93 76 124 102 23 285 258 262 264 269 198 245 268 302 175 214 8 288 336 214 158 176 165 127 140 150 159 191 181 239 224 235 176 166 160 139 140 151 170 173 180
230 217 199 202 212 216 215 190 171 174 174 173 172 172 168 165 163 162 158 157 155 155 152 151 153 146 129 106 114 125 187 230 102 118 159 146 145 143 136 120 133 130 127 139 133 112 115 90 94 173 82 117 286 314 301 320 238 201 249 250 252 77 248 329 350 351 205 241 77 124 138 181 168 178 119 218 235 221 11 134 134 145 150 160 163 173 179 182
226 220 214 208 209 210 223 191 174 175 174 171 170 172 167 163 161 161 159 156 154 153 153 151 153 148 145 118 134 132 219 228 79 149 146 145 144 143 141 122 188 135 115 113 130 132 120 155 103 41 54 5 327 314 306 338 314 209 226 197 297 271 327 352 13 109 164 120 156 113 133 343 239 260 173 213 218 105 95 131 143 146 155 169 179 179 177 184
224 220 213 210 214 206 214 214 180 172 175 173 170 171 168 161 159 158 159 156 153 152 153 153 149 153 133 109 112 197 199 320 88 139 151 142 146 149 162 142 147 123 110 116 112 129 143 141 118 59 106 238 241 270 324 281 233 322 252 206 189 268 58 18 188 240 245 160 222 141 165 146 316 75 223 244 201 108 106 138 152 154 169 179 181 185 188 185
223 219 212 210 211 206 212 203 194 176 175 172 170 167 167 161 156 155 156 156 153 153 152 152 152 141 129 147 159 199 329 354 119 134 146 149 154 161 161 152 154 127 115 127 124 134 110 106 135 126 74 223 347 307 322 252 315 299 219 82 75 332 353 256 357 261 79 156 166 133 122 318 331 51 220 203 182 146 133 152 165 171 174 182 185 189 193 196
218 215 213 207 204 205 204 202 182 176 166 173 171 167 166 161 154 152 152 153 151 152 151 151 151 131 89 140 181 189 325 280 122 145 150 157 170 169 165 163 159 140 132 132 139 107 111 112 96 88 166 13 319 320 294 255 306 291 171 191 272 16 285 233 185 223 323 213 149 164 73 356 305 218 233 220 138 153 144 160 172 184 185 183 188 190 194 203
219 212 209 207 201 193 196 199 177 170 167 170 174 170 165 160 152 147 147 145 149 148 147 140 134 127 124 160 204 247 296 272 117 130 140 130 92 61 124 100 138 155 143 137 151 128 112 111 109 123 242 339 299 238 290 327 309 354 292 163 41 26 299 256 147 239 133 274 173 267 200 256 240 236 307 169 141 126 132 163 186 190 188 193 190 195 204 204
221 212 207 205 198 188 187 192 191 173 166 170 168 171 166 154 149 145 143 140 142 138 135 134 118 123 144 179 291 282 342 79 114 138 164 153 116 88 102 21 88 73 93 102 101 119 105 118 114 123 129 144 271 313 321 305 316 226 242 131 177 147 249 244 167 176 164 229 159 80 212 268 241 244 231 177 160 153 171 184 190 193 196 195 200 202 205 208
218 212 207 203 197 187 185 180 187 185 173 167 165 164 158 152 147 141 137 137 136 129 130 103 108 98 160 185 292 296 248 92 145 180 170 155 139 101 146 107 105 127 121 114 122 115 113 124 96 101 211 188 264 286 285 319 326 258 114 237 340 166 271 292 137 161 167 261 90 98 261 234 248 254 236 185 188 167 174 184 194 197 198 200 203 209 213 215
218 210 205 204 197 191 181 180 178 182 176 166 160 159 151 147 142 133 133 128 127 125 130 124 173 100 114 175 218 107 136 166 199 179 246 170 158 157 148 116 93 91 104 71 117 108 99 97 85 146 43 334 287 277 292 321 321 345 148 267 194 155 231 7 223 202 174 129 1 167 203 307 286 267 269 188 174 190 178 189 196 204 204 201 204 208 215 221
217 209 203 201 195 192 181 169 175 176 173 161 156 152 146 138 131 121 122 123 114 104 116 133 124 207 150 329 94 171 184 160 107 137 186 272 154 131 120 113 129 129 78 89 100 105 75 90 229 78 136 219 250 249 279 279 279 294 36 184 206 175 228 224 306 277 210 158 200 204 190 233 238 307 287 173 184 173 190 198 204 207 206 206 204 208 211 215
218 209 203 201 197 190 177 162 166 177 171 160 149 147 141 130 116 112 111 106 85 84 87 54 137 119 276 117 193 195 118 129 166 163 156 262 149 136 139 133 112 124 116 102 95 135 116 100 111 166 45 213 230 205 192 228 198 224 249 186 279 343 185 193 158 244 146 278 203 193 242 266 271 304 297 218 178 185 204 200 203 207 214 215 210 209 214 215
218 209 203 197 196 192 178 165 166 172 172 156 142 128 105 98 104 101 120 126 124 131 163 175 162 189 211 186 106 114 151 131 77 135 171 131 174 124 71 60 118 136 148 143 214 131 141 80 83 163 200 203 214 206 191 221 178 202 179 184 169 173 232 215 238 291 178 189 222 185 214 237 248 268 284 263 214 195 220 232 239 226 222 220 215 216 213 216
217 209 203 198 190 195 181 170 166 165 167 147 123 114 115 128 115 118 152 156 178 165 12 170 168 64 76 131 154 113 96 98 127 221 155 230 118 120 116 123 130 137 152 169 163 174 149 169 185 196 200 202 211 195 191 217 196 171 59 150 196 198 247 280 267 270 228 156 228 211 224 237 277 254 246 257 296 259 259 244 233 233 224 222 224 219 219 219
214 205 202 196 191 187 176 171 162 162 157 146 144 142 158 160 145 156 167 167 140 4 143 157 170 120 107 129 121 131 125 165 56 193 185 160 136 130 168 127 149 161 188 152 150 137 160 193 210 195 193 210 224 205 210 229 231 224 248 192 270 184 234 245 219 328 321 174 260 208 257 264 254 265 255 115 171 239 226 228 239 236 231 228 222 225 223 225
209 202 199 194 188 187 170 162 157 152 162 155 158 155 165 164 7 154 138 136 78 10 134 157 149 41 21 98 196 135 93 126 147 180 214 147 174 149 208 151 165 169 176 146 145 170 189 208 190 189 190 207 238 220 221 214 231 212 212 237 259 262 245 283 278 305 312 152 257 17 216 252 250 241 273 206 219 236 223 211 219 216 229 229 225 229 234 240
202 199 195 190 182 183 166 161 150 149 173 159 168 96 159 264 123 112 82 85 80 82 86 149 142 44 42 55 317 161 140 169 167 184 185 156 166 180 150 157 171 173 175 174 170 171 196 213 188 181 199 223 236 232 239 248 249 206 208 130 219 235 151 258 269 0 357 122 260 162 204 269 284 277 252 251 220 231 224 217 232 219 220 218 218 212 217 223
197 195 192 186 179 177 166 160 149 148 167 174 150 138 147 150 126 133 105 95 116 38 85 161 122 100 112 145 220 196 161 183 132 179 193 161 164 160 155 169 169 170 189 189 177 182 193 141 166 173 205 199 217 231 217 228 243 238 177 167 209 171 233 156 215 120 325 15 91 91 4 304 274 268 285 263 236 254 256 237 250 252 243 250 266 255 227 214
191 191 187 182 176 170 164 152 156 169 162 155 97 155 157 150 145 138 105 88 37 20 56 65 101 180 158 121 24 101 323 119 205 154 175 159 156 129 190 163 162 192 184 191 171 171 215 195 160 196 193 191 211 227 219 186 236 253 220 192 211 204 185 253 126 110 33 303 308 199 319 292 281 261 237 252 11 234 238 220 236 239 241 238 243 237 235 244
186 186 182 179 178 167 153 158 174 156 150 171 159 166 163 157 159 154 98 74 130 130 168 192 168 222 148 114 70 83 59 123 302 250 160 199 134 149 135 187 177 187 181 181 179 189 181 213 169 189 176 196 206 218 219 163 212 213 256 187 215 191 162 138 139 96 130 180 288 15 192 265 329 289 248 263 262 251 271 231 246 246 244 229 234 236 230 227
181 181 177 177 173 157 157 178 146 143 160 173 160 163 169 167 161 168 99 37 190 181 153 299 129 204 150 153 134 129 121 216 3 302 188 268 181 332 166 177 101 145 169 148 138 233 171 168 176 177 180 187 200 213 225 169 175 225 245 131 129 119 142 176 158 167 194 253 312 47 131 205 291 284 257 269 276 265 282 263 252 247 238 228 231 231 233 231
177 175 172 168 165 167 162 140 151 167 178 160 162 165 167 166 94 60 87 135 222 123 168 209 213 55 87 144 153 162 263 123 134 240 205 207 129 312 165 192 182 168 168 159 193 288 165 187 180 182 179 182 205 201 227 169 169 220 204 158 162 168 180 158 143 148 146 129 262 313 269 259 256 267 306 297 296 289 254 247 247 242 239 238 237 235 233 229
172 170 166 166 167 174 162 154 163 172 130 143 153 160 152 111 77 159 168 177 98 115 106 115 260 110 109 139 170 161 46 144 150 156 103 67 266 143 179 219 163 153 132 190 178 191 299 180 189 170 171 198 192 209 193 168 188 254 123 86 77 73 68 112 104 104 28 104 252 233 192 201 281 273 331 337 240 269 259 247 245 238 232 226 228 236 238 241
168 166 165 166 164 149 141 156 151 111 138 145 145 133 146 128 113 173 172 220 127 151 175 149 182 173 164 156 176 149 138 187 135 121 183 181 198 63 251 145 129 143 152 29 125 210 196 347 55 124 187 176 177 210 158 203 207 121 111 85 51 44 38 33 70 103 72 269 252 236 280 163 289 264 219 195 221 201 245 291 276 268 272 252 236 230 224 224
165 163 165 162 166 161 137 138 153 143 129 134 134 136 136 126 167 151 178 177 95 108 99 155 148 124 151 157 168 195 151 140 148 153 171 175 177 216 147 88 38 79 53 79 112 327 15 9 129 241 90 357 122 116 21 162 175 142 120 126 83 358 12 26 339 38 163 264 262 256 208 170 192 290 279 242 272 234 214 239 261 282 269 253 245 234 223 204
163 161 161 165 165 160 158 159 160 140 143 140 136 135 145 141 313 189 160 135 153 183 158 151 160 155 167 173 159 162 158 113 171 167 172 184 175 180 195 178 164 156 182 180 197 35 44 174 251 354 220 145 123 102 19 60 119 95 107 127 138 226 42 237 3 236 223 205 240 346 158 357 249 230 253 270 265 267 219 219 237 250 278 268 258 236 213 200
158 159 161 164 151 167 151 144 148 147 142 141 130 136 146 160 176 166 113 174 195 157 209 157 165 163 164 145 170 138 68 148 190 181 162 179 169 210 234 173 203 161 178 171 110 100 265 276 328 285 2 198 170 168 197 141 261 128 149 149 126 117 142 199 264 266 315 285 269 232 287 267 244 279 245 247 255 251 222 233 239 243 254 247 223 222 221 219
157 155 160 162 165 149 131 141 141 142 143 135 128 136 147 163 187 148 153 187 159 164 140 159 148 140 150 166 168 154 127 234 158 178 160 168 180 187 223 245 185 153 95 176 161 179 165 231 236 156 192 1 1 219 166 156 120 221 122 150 171 144 152 198 194 202 213 201 280 274 92 233 134 242 233 236 267 303 269 259 258 253 255 239 229 222 243 229
154 154 151 149 137 146 144 150 146 145 135 134 134 159 163 162 149 170 164 153 128 132 140 138 134 139 166 153 145 171 119 149 167 161 174 163 193 192 193 200 213 125 137 143 236 128 198 173 297 335 134 127 172 294 121 117 136 190 168 78 125 209 147 173 203 164 178 170 55 218 209 187 179 255 270 251 268 281 312 317 344 272 298 246 201 204 211 227
146 155 143 148 143 157 145 149 146 139 140 139 146 177 194 170 163 182 189 147 149 147 141 135 142 147 159 143 144 174 152 120 186 135 199 208 207 198 200 192 187 190 167 173 155 155 109 209 332 308 75 91 160 195 293 164 186 202 115 199 212 128 103 91 56 129 106 44 256 177 321 290 300 316 284 333 311 269 319 298 325 270 265 267 229 229 234 231
141 140 151 152 147 159 150 145 143 140 140 150 158 178 185 196 223 178 156 164 161 140 144 147 178 150 169 164 165 180 183 121 184 157 203 161 236 214 202 224 176 191 191 129 188 215 158 207 334 76 193 3 130 131 261 46 154 98 162 219 165 131 112 139 210 351 63 196 259 91 207 284 48 262 314 334 302 277 281 253 254 285 275 240 232 228 224 220
139 133 127 146 157 150 146 143 138 140 140 153 178 183 174 183 158 148 129 123 134 141 144 145 158 162 167 159 178 176 163 162 183 189 193 179 235 196 188 194 213 185 191 224 143 228 121 88 302 312 13 281 4 63 63 355 4 149 193 185 132 231 247 280 107 229 179 246 263 297 263 271 182 232 335 274 235 253 253 239 249 250 241 235 240 247 252 256
132 135 138 157 154 149 146 142 134 142 148 161 184 188 150 240 169 148 156 141 145 149 150 178 143 208 158 172 163 175 165 180 166 192 161 228 208 197 187 177 191 170 177 157 128 165 79 144 294 332 119 289 18 91 193 201 354 39 69 123 100 114 179 146 202 176 135 243 72 292 70 228 206 222 202 247 229 232 250 241 230 231 222 216 224 230 223 217
147 134 132 160 151 141 142 136 135 149 157 172 185 208 170 174 180 160 164 149 161 152 162 154 167 141 172 172 162 163 192 173 170 188 200 201 196 305 187 183 163 185 172 170 135 175 157 106 161 269 289 96 191 188 207 159 153 21 115 193 242 0 221 113 41 132 173 174 185 202 298 275 252 215 194 225 237 234 210 225 234 238 226 217 219 216 212 208
132 100 114 155 144 135 132 129 152 163 171 197 179 157 160 179 152 160 165 158 140 340 155 161 159 162 162 137 171 166 149 133 172 183 184 202 187 183 223 183 143 159 113 87 114 179 103 108 154 152 86 213 236 241 187 195 206 184 168 195 177 131 118 164 249 45 98 133 237 140 248 265 269 183 202 220 239 260 213 212 239 250 239 223 223 220 204 205
143 141 157 154 144 138 137 143 156 170 183 180 172 168 170 94 141 164 160 169 142 125 132 146 164 151 158 166 160 169 152 168 175 175 217 165 205 142 204 131 150 151 153 178 166 235 139 119 104 156 212 195 217 265 205 173 77 241 207 205 183 184 142 139 199 236 336 249 115 165 191 270 241 210 213 230 247 243 239 205 242 250 243 234 227 211 210 207
144 117 120 150 152 144 141 147 165 178 180 193 8 7 1 150 161 171 158 176 153 149 132 158 167 136 182 148 155 149 155 162 171 194 170 160 202 196 189 158 148 161 128 187 94 195 85 111 84 320 329 313 306 306 301 161 54 308 260 44 173 197 190 184 176 183 168 188 195 266 239 251 288 242 230 248 256 258 261 213 233 257 253 244 214 197 194 191
122 127 138 167 159 152 148 165 172 178 164 145 184 209 41 169 158 168 168 178 154 168 157 147 166 167 159 167 151 169 171 149 214 172 120 170 186 197 170 168 158 166 168 197 177 197 142 270 119 109 38 354 337 337 333 339 120 208 225 256 242 303 63 143 105 91 148 219 176 153 236 270 269 310 287 276 277 280 269 254 205 245 264 230 208 194 182 175
113 99 117 149 179 170 166 179 170 168 173 170 179 195 175 166 196 176 168 176 141 152 140 169 164 154 149 157 170 165 177 170 150 212 104 172 176 66 194 173 179 176 194 182 137 154 124 172 142 143 158 176 194 205 209 202 191 235 214 230 193 170 150 127 214 205 213 271 141 188 252 238 275 309 288 281 282 290 263 252 264 222 242 213 188 181 175 169
148 129 149 124 155 176 179 14 89 159 158 164 178 196 147 146 190 223 163 177 181 108 101 118 89 119 130 144 147 156 173 239 144 179 163 165 154 242 196 189 184 188 166 134 143 145 136 149 188 185 186 197 206 189 74 115 122 198 209 172 195 189 186 140 107 134 210 202 191 226 224 233 238 253 242 265 236 226 257 256 241 242 238 211 176 169 179 179
130 131 149 113 87 203 109 28 130 153 172 174 176 171 175 164 152 166 202 147 226 143 118 134 146 137 162 147 158 167 179 106 36 142 179 154 307 177 9 180 186 133 143 132 157 113 111 166 211 208 215 231 123 165 193 155 181 203 179 191 187 171 170 163 190 220 148 90 264 233 228 233 226 230 252 264 266 259 266 267 262 256 249 188 177 166 157 164
117 158 148 160 159 170 195 221 174 169 174 177 191 132 176 155 166 169 241 281 151 156 125 82 160 160 161 166 153 157 169 159 133 160 134 115 110 52 88 356 167 255 167 151 181 148 155 202 207 169 220 173 168 145 165 173 189 184 183 179 173 180 161 190 216 219 143 195 231 234 218 240 235 205 220 227 229 234 230 249 252 229 165 166 152 163 177 187
71 89 140 8 24 188 181 175 172 175 172 179 180 159 170 167 177 174 159 157 153 176 148 153 175 165 168 159 154 153 163 147 201 165 161 167 158 138 92 71 287 15 167 132 177 166 152 222 164 170 156 163 215 164 172 169 179 155 182 186 185 167 195 204 217 215 196 222 238 266 293 260 249 206 216 224 233 246 270 291 84 159 208 187 183 185 188 190
147 153 164 10 15 154 71 93 146 161 174 177 163 202 174 175 169 157 208 158 159 182 170 156 170 167 164 164 162 165 178 182 169 166 190 126 145 169 167 175 148 51 92 148 154 301 145 246 134 133 116 220 226 206 191 181 157 179 205 196 189 195 205 210 215 224 231 279 275 296 292 277 261 153 215 236 204 79 53 226 208 220 215 197 191 193 193 199
88 4 124 136 121 128 129 149 159 171 169 187 186 197 171 185 173 167 164 236 169 165 166 168 156 157 165 167 175 180 184 181 163 166 162 154 170 193 155 237 147 140 148 143 153 59 134 201 37 112 159 249 224 167 174 57 130 172 190 204 209 205 212 219 220 190 181 226 237 247 261 253 89 177 188 208 152 167 209 233 244 250 230 195 199 200 202 209
58 298 86 90 62 142 143 149 154 157 193 192 178 189 183 188 170 152 131 9 36 151 158 139 146 138 175 173 186 188 180 168 171 164 167 170 157 135 79 148 154 155 163 171 153 146 155 126 140 145 159 223 268 134 136 116 111 281 239 215 204 200 204 200 211 199 205 209 214 219 239 226 184 185 162 157 150 203 221 230 249 259 233 193 202 207 213 218